DMSP 5D-2 F13 DEB, 40564

Orbit data source: Space-Track

DMSP 5D-2 F13 DEB, 40564 is space debris in SSO originally from a launch on Fri, 24 Mar 1995 UTC launched from the Air Force Western Test Range (AFWTR). Debris objects in space refer to the collection of defunct objects orbiting the Earth. Examples of debris include non-operational satellites, rocket bodies, and fragments generated from explosions, collisions, or faulty payload assembly.

Loading next visibility...
Identifier
40564, 1995-015DX
Orbit
SSO
Country
Flag of USUS
Related business
Manufacturer
Unknown
Mission
Spacecraft
Bus & Motor
Unknown
Mass
Unknown
Launch date (UTC)
1995-03-24 (31 years ago)
Launch vehicle
Unknown
Launch site
Air Force Western Test Range (AFWTR)
Object type
Payload
Rocket body
Debris
Shape & HBR
Unknown shape, 0.1 m
Radar Cross Section
Small (<0.1 m²)

Expand to show TLE details & history
Last TLE update: 14 hours ago

TLE from 14 hours ago
0 DMSP 5D-2 F13 DEB
1 40564U 95015DX  26035.45861758  .00049325  00000-0  57622-2 0  9996
2 40564  98.6387 124.8631 0012019 187.5032 172.6002 14.84866381567247
Epoch: 2026-02-04T11:00Z
TLE epoch observation values (Epoch: 2026-02-04T11:00:24.558Z)
Latitude
-0.00008°
Longitude
-174.86412°
Altitude
625.346 km
Speed
7.541 km/s
True Right ascension
08h 19m 27s
True Declination
0° 00' 00"
Sunlit
Object was in full shadow at epoch
Visualization orbit readout
Latitude
Unknown
Longitude
Unknown
Altitude
Unknown
Speed
Unknown
Apparent Right ascension
Unknown
Apparent Declination
Unknown
Sunlit
N/A
Visualization observer readout
Local Sidereal Time
02:31:56
Azimuth
Unknown
Elevation
Unknown
Doppler factor
Unknown
Orbital elements
Apogee altitude
619.475 km
Perigee altitude
602.674 km
Semi-major axis
6,989.211 km
Eccentricity
0.0012
Inclination
98.6387°
RAAN
124.8631°
Arg. of periapsis
187.5032°
True anomaly
172.61791°
Mean anomaly
172.6002°
Eccentric anomaly
172.60906°
Mean motion
3.7145 °/min
Orbital period
96.92 mins
BSTAR
0.0057622
Loading maneuver chart data...
Computing Atmospheric mass density...

Documentation

Showing up to 5 results
|